Location: ?????
(31.8092°N, 35.2590°E)
Time: 13:40:04
(UTC+00:00)

Cosmos 1802 Rocket - Pass Details

Date: 20 June 2021
Orbit: 955 x 1010 km, 82.9° (Epoch: 31 July)

Event Time Altitude Azimuth Distance (km) Brightness Sun altitude
Rises 19:06:26 0° 354° (N) 3,693 7.9 -23.6°
Reaches altitude 10° 19:08:56 10° 354° (N) 2,749 7.1 -23.9°
Maximum altitude 19:15:16 90° 73° (ENE) 1,001 3.9 -24.7°
Enters shadow 19:17:02 51° 175° (S) 1,234 4.1 -24.9°
